Time,TemperatureF,DewpointF,PressureIn,WindDirection,WindDirectionDegrees,WindSpeedMPH,WindSpeedGustMPH,Humidity,HourlyPrecipIn,Conditions,Clouds,dailyrainin,SoftwareType,DateUTC
2013-03-07 00:00:00,51.9,41.7,30.10,NW,321,18.0,18.0,68,0.00,,,0.00,WeatherCatV1.10B1784,2013-03-07 05:00:00,
2013-03-07 00:05:00,52.0,41.4,30.10,NNW,347,12.0,19.0,67,0.00,,,0.00,WeatherCatV1.10B1784,2013-03-07 05:05:00,
2013-03-07 00:10:00,52.1,41.9,30.10,NNW,333,16.0,19.0,68,0.00,,,0.00,WeatherCatV1.10B1784,2013-03-07 05:10:00,
2013-03-07 00:15:00,51.9,41.3,30.10,NNW,333,16.0,17.0,67,0.00,,,0.00,WeatherCatV1.10B1784,2013-03-07 05:15:00,
2013-03-07 00:20:00,51.9,40.5,30.10,NW,324,20.0,20.0,65,0.00,,,0.00,WeatherCatV1.10B1784,2013-03-07 05:20:00,
2013-03-07 00:25:00,52.0,41.4,30.10,NNW,331,20.0,20.0,67,0.00,,,0.00,WeatherCatV1.10B1784,2013-03-07 05:25:00,
2013-03-07 00:30:00,52.1,41.5,30.09,NNW,327,14.0,19.0,67,0.00,,,0.00,WeatherCatV1.10B1784,2013-03-07 05:30:00,
2013-03-07 00:35:00,52.2,41.2,30.09,NW,323,18.0,18.0,66,0.00,,,0.00,WeatherCatV1.10B1784,2013-03-07 05:35:00,
2013-03-07 00:40:00,52.1,40.7,30.09,NNW,328,17.0,17.0,65,0.00,,,0.00,WeatherCatV1.10B1784,2013-03-07 05:40:00,
2013-03-07 00:45:00,52.1,40.3,30.09,NNW,346,16.0,18.0,64,0.00,,,0.00,WeatherCatV1.10B1784,2013-03-07 05:45:00,
2013-03-07 00:50:00,52.0,39.4,30.09,NNW,327,14.0,22.0,62,0.00,,,0.00,WeatherCatV1.10B1784,2013-03-07 05:50:00,
2013-03-07 00:55:00,51.8,39.6,30.09,NNW,346,16.0,20.0,63,0.00,,,0.00,WeatherCatV1.10B1784,2013-03-07 05:55:00,
2013-03-07 01:00:00,51.8,40.4,30.09,NNW,347,18.0,21.0,65,0.00,,,0.00,WeatherCatV1.10B1784,2013-03-07 06:00:00,
2013-03-07 01:05:00,51.7,39.5,30.09,North,9,9.0,12.0,63,0.00,,,0.00,WeatherCatV1.10B1784,2013-03-07 06:05:00,
2013-03-07 01:10:00,51.4,38.8,30.09,North,0,10.0,10.0,62,0.00,,,0.00,WeatherCatV1.10B1784,2013-03-07 06:10:00,
2013-03-07 01:15:00,51.0,38.0,30.09,North,0,16.0,19.0,61,0.00,,,0.00,WeatherCatV1.10B1784,2013-03-07 06:15:00,
2013-03-07 01:20:00,50.9,37.9,30.09,North,5,12.0,19.0,61,0.00,,,0.00,WeatherCatV1.10B1784,2013-03-07 06:20:00,
2013-03-07 01:25:00,51.0,38.4,30.09,North,5,7.0,17.0,62,0.00,,,0.00,WeatherCatV1.10B1784,2013-03-07 06:25:00,
2013-03-07 01:30:00,51.1,39.7,30.09,NNE,16,11.0,18.0,65,0.00,,,0.00,WeatherCatV1.10B1784,2013-03-07 06:30:00,
2013-03-07 01:35:00,51.0,38.0,30.09,North,11,17.0,17.0,61,0.00,,,0.00,WeatherCatV1.10B1784,2013-03-07 06:35:00,
2013-03-07 01:40:00,50.9,36.7,30.09,North,349,14.0,21.0,58,0.00,,,0.00,WeatherCatV1.10B1784,2013-03-07 06:40:00,
2013-03-07 01:45:00,50.8,35.7,30.08,North,0,17.0,20.0,56,0.00,,,0.00,WeatherCatV1.10B1784,2013-03-07 06:45:00,
2013-03-07 01:50:00,50.8,35.7,30.08,North,11,11.0,20.0,56,0.00,,,0.00,WeatherCatV1.10B1784,2013-03-07 06:50:00,
2013-03-07 01:55:00,50.7,36.9,30.08,North,0,16.0,16.0,59,0.00,,,0.00,WeatherCatV1.10B1784,2013-03-07 06:55:00,
2013-03-07 02:00:00,50.6,36.4,30.08,North,0,13.0,23.0,58,0.00,,,0.00,WeatherCatV1.10B1784,2013-03-07 07:00:00,
2013-03-07 02:05:00,50.5,36.3,30.08,North,0,13.0,19.0,58,0.00,,,0.00,WeatherCatV1.10B1784,2013-03-07 07:05:00,
2013-03-07 02:10:00,50.3,36.1,30.08,North,5,10.0,15.0,58,0.00,,,0.00,WeatherCatV1.10B1784,2013-03-07 07:10:00,
2013-03-07 02:15:00,50.2,36.0,30.08,NNW,345,18.0,22.0,58,0.00,,,0.00,WeatherCatV1.10B1784,2013-03-07 07:15:00,
2013-03-07 02:20:00,50.1,36.3,30.08,North,355,13.0,17.0,59,0.00,,,0.00,WeatherCatV1.10B1784,2013-03-07 07:20:00,
2013-03-07 02:25:00,50.1,35.9,30.08,North,0,16.0,16.0,58,0.00,,,0.00,WeatherCatV1.10B1784,2013-03-07 07:25:00,
2013-03-07 02:30:00,50.1,35.9,30.07,North,5,11.0,20.0,58,0.00,,,0.00,WeatherCatV1.10B1784,2013-03-07 07:30:00,
2013-03-07 02:35:00,50.0,35.8,30.07,North,355,17.0,20.0,58,0.00,,,0.00,WeatherCatV1.10B1784,2013-03-07 07:35:00,
2013-03-07 02:40:00,50.0,35.4,30.07,NNE,12,13.0,16.0,57,0.00,,,0.00,WeatherCatV1.10B1784,2013-03-07 07:40:00,
2013-03-07 02:45:00,50.1,36.3,30.07,North,5,12.0,19.0,59,0.00,,,0.00,WeatherCatV1.10B1784,2013-03-07 07:45:00,
2013-03-07 02:50:00,50.1,36.8,30.07,North,5,14.0,20.0,60,0.00,,,0.00,WeatherCatV1.10B1784,2013-03-07 07:50:00,
2013-03-07 02:55:00,50.1,35.5,30.07,North,0,19.0,21.0,57,0.00,,,0.00,WeatherCatV1.10B1784,2013-03-07 07:55:00,
2013-03-07 03:00:00,50.1,35.5,30.06,North,0,13.0,23.0,57,0.00,,,0.00,WeatherCatV1.10B1784,2013-03-07 08:00:00,
2013-03-07 03:05:00,50.0,36.7,30.06,NNW,336,17.0,23.0,60,0.00,,,0.00,WeatherCatV1.10B1784,2013-03-07 08:05:00,
2013-03-07 03:10:00,49.9,36.1,30.06,North,350,15.0,18.0,59,0.00,,,0.00,WeatherCatV1.10B1784,2013-03-07 08:10:00,
2013-03-07 03:15:00,49.9,36.6,30.07,North,355,11.0,17.0,60,0.00,,,0.00,WeatherCatV1.10B1784,2013-03-07 08:15:00,
2013-03-07 03:20:00,49.9,36.1,30.07,North,0,17.0,20.0,59,0.00,,,0.00,WeatherCatV1.10B1784,2013-03-07 08:20:00,
2013-03-07 03:25:00,49.9,36.6,30.07,NNW,343,13.0,16.0,60,0.00,,,0.00,WeatherCatV1.10B1784,2013-03-07 08:25:00,
2013-03-07 03:30:00,49.8,36.5,30.06,North,0,11.0,18.0,60,0.00,,,0.00,WeatherCatV1.10B1784,2013-03-07 08:30:00,
2013-03-07 03:35:00,49.7,36.4,30.06,North,0,11.0,15.0,60,0.00,,,0.00,WeatherCatV1.10B1784,2013-03-07 08:35:00,
2013-03-07 03:40:00,49.8,38.1,30.06,NNW,329,17.0,26.0,64,0.00,,,0.00,WeatherCatV1.10B1784,2013-03-07 08:40:00,
2013-03-07 03:45:00,50.1,38.8,30.06,NNW,342,19.0,25.0,65,0.00,,,0.00,WeatherCatV1.10B1784,2013-03-07 08:45:00,
2013-03-07 03:50:00,50.2,39.3,30.06,North,355,17.0,25.0,66,0.00,,,0.00,WeatherCatV1.10B1784,2013-03-07 08:50:00,
2013-03-07 03:55:00,50.1,38.0,30.06,North,351,21.0,25.0,63,0.00,,,0.00,WeatherCatV1.10B1784,2013-03-07 08:55:00,
2013-03-07 04:00:00,50.0,38.3,30.07,NNW,344,19.0,26.0,64,0.00,,,0.00,WeatherCatV1.10B1784,2013-03-07 09:00:00,
2013-03-07 04:05:00,49.8,38.5,30.07,North,355,16.0,19.0,65,0.00,,,0.00,WeatherCatV1.10B1784,2013-03-07 09:05:00,
2013-03-07 04:10:00,49.7,37.6,30.07,North,355,20.0,24.0,63,0.00,,,0.00,WeatherCatV1.10B1784,2013-03-07 09:10:00,
2013-03-07 04:15:00,49.7,39.2,30.07,North,0,17.0,23.0,67,0.00,,,0.00,WeatherCatV1.10B1784,2013-03-07 09:15:00,
2013-03-07 04:20:00,49.6,38.3,30.07,NNW,344,14.0,22.0,65,0.00,,,0.00,WeatherCatV1.10B1784,2013-03-07 09:20:00,
2013-03-07 04:25:00,49.6,39.5,30.07,NNW,338,20.0,22.0,68,0.00,,,0.00,WeatherCatV1.10B1784,2013-03-07 09:25:00,
2013-03-07 04:30:00,49.4,38.5,30.08,North,355,18.0,24.0,66,0.00,,,0.00,WeatherCatV1.10B1784,2013-03-07 09:30:00,
2013-03-07 04:35:00,49.4,39.3,30.08,NNW,341,18.0,24.0,68,0.00,,,0.00,WeatherCatV1.10B1784,2013-03-07 09:35:00,
2013-03-07 04:40:00,49.4,39.3,30.08,NNW,344,18.0,24.0,68,0.00,,,0.00,WeatherCatV1.10B1784,2013-03-07 09:40:00,
2013-03-07 04:45:00,49.3,38.8,30.08,NNW,340,22.0,22.0,67,0.00,,,0.00,WeatherCatV1.10B1784,2013-03-07 09:45:00,
2013-03-07 04:50:00,49.1,38.6,30.08,NNW,333,18.0,25.0,67,0.00,,,0.00,WeatherCatV1.10B1784,2013-03-07 09:50:00,
2013-03-07 04:55:00,49.1,39.0,30.08,North,5,20.0,23.0,68,0.00,,,0.00,WeatherCatV1.10B1784,2013-03-07 09:55:00,
2013-03-07 05:00:00,49.0,38.9,30.09,NNW,338,22.0,23.0,68,0.00,,,0.00,WeatherCatV1.10B1784,2013-03-07 10:00:00,
2013-03-07 05:05:00,48.8,38.7,30.09,NNW,327,19.0,24.0,68,0.00,,,0.00,WeatherCatV1.10B1784,2013-03-07 10:05:00,
2013-03-07 05:10:00,48.7,38.6,30.09,NW,325,20.0,26.0,68,0.00,,,0.00,WeatherCatV1.10B1784,2013-03-07 10:10:00,
2013-03-07 05:15:00,48.7,37.9,30.09,NNW,327,24.0,26.0,66,0.00,,,0.00,WeatherCatV1.10B1784,2013-03-07 10:15:00,
2013-03-07 05:20:00,48.5,38.4,30.09,NNW,340,18.0,22.0,68,0.00,,,0.00,WeatherCatV1.10B1784,2013-03-07 10:20:00,
2013-03-07 05:25:00,48.2,38.1,30.09,NNW,347,16.0,25.0,68,0.00,,,0.00,WeatherCatV1.10B1784,2013-03-07 10:25:00,
2013-03-07 05:30:00,47.9,37.9,30.09,NNW,344,18.0,23.0,68,0.00,,,0.00,WeatherCatV1.10B1784,2013-03-07 10:30:00,
2013-03-07 05:35:00,47.7,38.4,30.09,NNW,344,19.0,23.0,70,0.00,,,0.00,WeatherCatV1.10B1784,2013-03-07 10:35:00,
2013-03-07 05:40:00,47.6,38.3,30.09,NNW,340,21.0,24.0,70,0.00,,,0.00,WeatherCatV1.10B1784,2013-03-07 10:40:00,
2013-03-07 05:45:00,47.5,38.6,30.10,NNW,342,20.0,23.0,71,0.00,,,0.00,WeatherCatV1.10B1784,2013-03-07 10:45:00,
2013-03-07 05:50:00,47.3,38.0,30.10,North,355,18.0,23.0,70,0.00,,,0.00,WeatherCatV1.10B1784,2013-03-07 10:50:00,
2013-03-07 05:55:00,47.3,38.4,30.10,NNW,340,23.0,23.0,71,0.00,,,0.00,WeatherCatV1.10B1784,2013-03-07 10:55:00,
2013-03-07 06:00:00,47.3,38.4,30.10,North,351,20.0,24.0,71,0.00,,,0.00,WeatherCatV1.10B1784,2013-03-07 11:00:00,
2013-03-07 06:05:00,47.1,38.2,30.10,North,0,18.0,18.0,71,0.00,,,0.00,WeatherCatV1.10B1784,2013-03-07 11:05:00,
2013-03-07 06:10:00,46.9,38.0,30.10,NNW,348,22.0,24.0,71,0.00,,,0.00,WeatherCatV1.10B1784,2013-03-07 11:10:00,
2013-03-07 06:15:00,46.8,37.2,30.10,North,355,17.0,22.0,69,0.00,,,0.00,WeatherCatV1.10B1784,2013-03-07 11:15:00,
2013-03-07 06:20:00,47.1,38.5,30.10,NNW,346,18.0,21.0,72,0.00,,,0.00,WeatherCatV1.10B1784,2013-03-07 11:20:00,
2013-03-07 06:25:00,47.0,37.7,30.10,NNW,336,19.0,24.0,70,0.00,,,0.00,WeatherCatV1.10B1784,2013-03-07 11:25:00,
2013-03-07 06:30:00,46.9,37.6,30.10,NNW,344,17.0,23.0,70,0.00,,,0.00,WeatherCatV1.10B1784,2013-03-07 11:30:00,
2013-03-07 06:35:00,47.0,38.1,30.10,NNW,342,19.0,20.0,71,0.00,,,0.00,WeatherCatV1.10B1784,2013-03-07 11:35:00,
2013-03-07 06:40:00,47.2,39.0,30.10,NNW,347,20.0,20.0,73,0.00,,,0.00,WeatherCatV1.10B1784,2013-03-07 11:40:00,
2013-03-07 06:45:00,47.3,39.4,30.11,North,350,17.0,20.0,74,0.00,,,0.00,WeatherCatV1.10B1784,2013-03-07 11:45:00,
2013-03-07 06:50:00,47.4,39.5,30.11,NNW,344,11.0,21.0,74,0.00,,,0.00,WeatherCatV1.10B1784,2013-03-07 11:50:00,
2013-03-07 06:55:00,47.5,39.6,30.11,NNW,333,17.0,21.0,74,0.00,,,0.00,WeatherCatV1.10B1784,2013-03-07 11:55:00,
2013-03-07 07:00:00,47.3,39.1,30.11,NNW,342,16.0,19.0,73,0.00,,,0.00,WeatherCatV1.10B1784,2013-03-07 12:00:00,
2013-03-07 07:05:00,47.3,39.4,30.11,NNW,333,15.0,20.0,74,0.00,,,0.00,WeatherCatV1.10B1784,2013-03-07 12:05:00,
2013-03-07 07:10:00,47.2,39.0,30.11,NNW,341,19.0,23.0,73,0.00,,,0.00,WeatherCatV1.10B1784,2013-03-07 12:10:00,
2013-03-07 07:15:00,47.2,39.3,30.12,NNW,346,23.0,23.0,74,0.00,,,0.00,WeatherCatV1.10B1784,2013-03-07 12:15:00,
2013-03-07 07:20:00,47.4,38.8,30.12,NNW,329,17.0,23.0,72,0.00,,,0.00,WeatherCatV1.10B1784,2013-03-07 12:20:00,
2013-03-07 07:25:00,47.7,39.8,30.12,NNW,336,16.0,20.0,74,0.00,,,0.00,WeatherCatV1.10B1784,2013-03-07 12:25:00,
2013-03-07 07:30:00,48.0,39.8,30.12,NW,326,18.0,19.0,73,0.00,,,0.00,WeatherCatV1.10B1784,2013-03-07 12:30:00,
2013-03-07 07:35:00,48.2,41.0,30.12,NNW,333,15.0,20.0,76,0.00,,,0.00,WeatherCatV1.10B1784,2013-03-07 12:35:00,
2013-03-07 07:40:00,48.5,39.9,30.12,NW,325,15.0,19.0,72,0.00,,,0.00,WeatherCatV1.10B1784,2013-03-07 12:40:00,
2013-03-07 07:45:00,48.6,40.3,30.13,NNW,344,13.0,18.0,73,0.00,,,0.00,WeatherCatV1.10B1784,2013-03-07 12:45:00,
2013-03-07 07:50:00,48.6,40.3,30.13,NNW,331,14.0,17.0,73,0.00,,,0.00,WeatherCatV1.10B1784,2013-03-07 12:50:00,
2013-03-07 07:55:00,48.7,39.7,30.13,NNW,343,15.0,20.0,71,0.00,,,0.00,WeatherCatV1.10B1784,2013-03-07 12:55:00,
2013-03-07 08:00:00,49.0,41.1,30.14,NNW,330,18.0,19.0,74,0.00,,,0.00,WeatherCatV1.10B1784,2013-03-07 13:00:00,
2013-03-07 08:05:00,49.0,41.1,30.14,NNW,345,16.0,18.0,74,0.00,,,0.00,WeatherCatV1.10B1784,2013-03-07 13:05:00,
2013-03-07 08:10:00,49.3,40.3,30.14,NNW,340,16.0,22.0,71,0.00,,,0.00,WeatherCatV1.10B1784,2013-03-07 13:10:00,
2013-03-07 08:15:00,49.2,40.6,30.14,NNW,328,19.0,20.0,72,0.00,,,0.00,WeatherCatV1.10B1784,2013-03-07 13:15:00,
2013-03-07 08:21:00,49.1,40.5,30.14,NNW,335,20.0,20.0,72,0.00,,,0.00,WeatherCatV1.10B1784,2013-03-07 13:21:00,
2013-03-07 08:26:00,49.2,40.9,30.14,NNW,331,17.0,17.0,73,0.00,,,0.00,WeatherCatV1.10B1784,2013-03-07 13:26:00,
2013-03-07 08:31:00,49.5,41.2,30.15,NNW,338,17.0,17.0,73,0.00,,,0.00,WeatherCatV1.10B1784,2013-03-07 13:31:00,
2013-03-07 08:36:00,49.6,41.3,30.15,NNW,329,15.0,19.0,73,0.00,,,0.00,WeatherCatV1.10B1784,2013-03-07 13:36:00,
2013-03-07 08:41:00,49.9,41.2,30.15,NNW,346,15.0,19.0,72,0.00,,,0.00,WeatherCatV1.10B1784,2013-03-07 13:41:00,
2013-03-07 08:46:00,50.1,41.1,30.15,NNW,331,14.0,17.0,71,0.00,,,0.00,WeatherCatV1.10B1784,2013-03-07 13:46:00,
2013-03-07 08:51:00,50.4,41.7,30.15,NW,324,13.0,15.0,72,0.00,,,0.00,WeatherCatV1.10B1784,2013-03-07 13:51:00,
2013-03-07 08:56:00,50.6,41.9,30.15,NW,320,15.0,16.0,72,0.00,,,0.00,WeatherCatV1.10B1784,2013-03-07 13:56:00,
2013-03-07 09:01:00,50.8,42.1,30.15,NW,323,12.0,16.0,72,0.00,,,0.00,WeatherCatV1.10B1784,2013-03-07 14:01:00,
2013-03-07 09:06:00,51.1,42.8,30.15,NNW,347,13.0,14.0,73,0.00,,,0.00,WeatherCatV1.10B1784,2013-03-07 14:06:00,
2013-03-07 09:11:00,51.5,42.4,30.15,NNW,344,11.0,15.0,71,0.00,,,0.00,WeatherCatV1.10B1784,2013-03-07 14:11:00,
2013-03-07 09:16:00,51.5,41.7,30.15,NNW,327,12.0,17.0,69,0.00,,,0.00,WeatherCatV1.10B1784,2013-03-07 14:16:00,
2013-03-07 09:21:00,51.9,42.4,30.15,NNW,328,15.0,16.0,70,0.00,,,0.00,WeatherCatV1.10B1784,2013-03-07 14:21:00,
2013-03-07 09:26:00,52.0,42.5,30.15,North,349,13.0,15.0,70,0.00,,,0.00,WeatherCatV1.10B1784,2013-03-07 14:26:00,
2013-03-07 09:31:00,52.0,41.8,30.15,NNW,329,12.0,17.0,68,0.00,,,0.00,WeatherCatV1.10B1784,2013-03-07 14:31:00,
2013-03-07 09:36:00,52.1,43.0,30.15,NNW,335,13.0,14.0,71,0.00,,,0.00,WeatherCatV1.10B1784,2013-03-07 14:36:00,
2013-03-07 09:41:00,52.6,43.5,30.15,NNW,336,15.0,16.0,71,0.00,,,0.00,WeatherCatV1.10B1784,2013-03-07 14:41:00,
2013-03-07 09:46:00,52.9,43.4,30.15,NNW,331,12.0,17.0,70,0.00,,,0.00,WeatherCatV1.10B1784,2013-03-07 14:46:00,
2013-03-07 09:51:00,53.1,43.9,30.15,NNW,340,13.0,14.0,71,0.00,,,0.00,WeatherCatV1.10B1784,2013-03-07 14:51:00,
2013-03-07 09:56:00,53.5,43.6,30.15,NNW,346,15.0,17.0,69,0.00,,,0.00,WeatherCatV1.10B1784,2013-03-07 14:56:00,
2013-03-07 10:01:00,53.5,44.7,30.15,NNW,348,15.0,16.0,72,0.00,,,0.00,WeatherCatV1.10B1784,2013-03-07 15:01:00,
2013-03-07 10:06:00,53.9,44.3,30.15,NNW,339,16.0,18.0,70,0.00,,,0.00,WeatherCatV1.10B1784,2013-03-07 15:06:00,
2013-03-07 10:11:00,54.3,44.7,30.15,NNW,344,11.0,16.0,70,0.00,,,0.00,WeatherCatV1.10B1784,2013-03-07 15:11:00,
2013-03-07 10:16:00,54.3,44.7,30.16,NNW,341,14.0,17.0,70,0.00,,,0.00,WeatherCatV1.10B1784,2013-03-07 15:16:00,
2013-03-07 10:21:00,54.7,45.5,30.16,NNW,342,13.0,17.0,71,0.00,,,0.00,WeatherCatV1.10B1784,2013-03-07 15:21:00,
2013-03-07 10:26:00,54.5,44.9,30.16,NNW,338,13.0,17.0,70,0.00,,,0.00,WeatherCatV1.10B1784,2013-03-07 15:26:00,
2013-03-07 10:31:00,54.7,45.9,30.17,NNW,328,17.0,17.0,72,0.00,,,0.00,WeatherCatV1.10B1784,2013-03-07 15:31:00,
2013-03-07 10:36:00,54.8,46.3,30.17,NNW,333,16.0,17.0,73,0.00,,,0.00,WeatherCatV1.10B1784,2013-03-07 15:36:00,
2013-03-07 10:41:00,55.1,46.6,30.17,NNW,346,16.0,19.0,73,0.00,,,0.00,WeatherCatV1.10B1784,2013-03-07 15:41:00,
2013-03-07 10:46:00,55.5,47.0,30.17,NNW,330,15.0,17.0,73,0.00,,,0.00,WeatherCatV1.10B1784,2013-03-07 15:46:00,
2013-03-07 10:51:00,55.4,46.9,30.17,NNW,336,14.0,18.0,73,0.00,,,0.00,WeatherCatV1.10B1784,2013-03-07 15:51:00,
2013-03-07 10:56:00,55.6,47.4,30.17,NNW,339,14.0,17.0,74,0.00,,,0.00,WeatherCatV1.10B1784,2013-03-07 15:56:00,
2013-03-07 11:01:00,55.9,47.0,30.17,NNW,338,13.0,17.0,72,0.00,,,0.00,WeatherCatV1.10B1784,2013-03-07 16:01:00,
2013-03-07 11:06:00,56.2,46.9,30.17,NNW,331,17.0,18.0,71,0.00,,,0.00,WeatherCatV1.10B1784,2013-03-07 16:06:00,
2013-03-07 11:11:00,56.3,47.4,30.17,NNW,334,13.0,16.0,72,0.00,,,0.00,WeatherCatV1.10B1784,2013-03-07 16:11:00,
2013-03-07 11:16:00,56.7,47.4,30.17,NNW,340,15.0,17.0,71,0.00,,,0.00,WeatherCatV1.10B1784,2013-03-07 16:16:00,
2013-03-07 11:21:00,57.3,48.3,30.17,North,350,10.0,17.0,72,0.00,,,0.00,WeatherCatV1.10B1784,2013-03-07 16:21:00,
2013-03-07 11:26:00,58.4,47.9,30.17,North,355,14.0,16.0,68,0.00,,,0.00,WeatherCatV1.10B1784,2013-03-07 16:26:00,
2013-03-07 11:31:00,59.0,47.7,30.17,NNE,18,13.0,13.0,66,0.00,,,0.00,WeatherCatV1.10B1784,2013-03-07 16:31:00,
2013-03-07 11:36:00,59.7,47.1,30.17,NE,38,13.0,16.0,63,0.00,,,0.00,WeatherCatV1.10B1784,2013-03-07 16:36:00,
2013-03-07 11:41:00,59.8,46.8,30.17,NNE,17,9.0,17.0,62,0.00,,,0.00,WeatherCatV1.10B1784,2013-03-07 16:41:00,
2013-03-07 11:46:00,60.4,46.9,30.17,NNE,22,9.0,17.0,61,0.00,,,0.00,WeatherCatV1.10B1784,2013-03-07 16:46:00,
2013-03-07 11:51:00,60.0,46.9,30.17,North,11,13.0,16.0,62,0.00,,,0.00,WeatherCatV1.10B1784,2013-03-07 16:51:00,
2013-03-07 11:56:00,60.3,46.8,30.17,NNE,18,15.0,18.0,61,0.00,,,0.00,WeatherCatV1.10B1784,2013-03-07 16:56:00,
2013-03-07 12:01:00,60.3,46.8,30.16,NNE,18,6.0,14.0,61,0.00,,,0.00,WeatherCatV1.10B1784,2013-03-07 17:01:00,
2013-03-07 12:06:00,60.3,46.8,30.16,NNE,13,10.0,18.0,61,0.00,,,0.00,WeatherCatV1.10B1784,2013-03-07 17:06:00,
2013-03-07 12:11:00,60.1,47.0,30.16,North,5,10.0,14.0,62,0.00,,,0.00,WeatherCatV1.10B1784,2013-03-07 17:11:00,
2013-03-07 12:16:00,60.4,47.3,30.17,North,355,11.0,15.0,62,0.00,,,0.00,WeatherCatV1.10B1784,2013-03-07 17:16:00,
2013-03-07 12:21:00,60.5,47.4,30.17,North,351,17.0,17.0,62,0.00,,,0.00,WeatherCatV1.10B1784,2013-03-07 17:21:00,
2013-03-07 12:26:00,60.3,47.6,30.17,North,355,12.0,15.0,63,0.00,,,0.00,WeatherCatV1.10B1784,2013-03-07 17:26:00,
2013-03-07 12:31:00,60.6,47.9,30.16,NNE,13,9.0,19.0,63,0.00,,,0.00,WeatherCatV1.10B1784,2013-03-07 17:31:00,
2013-03-07 12:36:00,61.1,48.4,30.16,NNE,28,12.0,15.0,63,0.00,,,0.00,WeatherCatV1.10B1784,2013-03-07 17:36:00,
2013-03-07 12:41:00,60.8,48.1,30.16,NNE,17,12.0,15.0,63,0.00,,,0.00,WeatherCatV1.10B1784,2013-03-07 17:41:00,
2013-03-07 12:46:00,60.9,47.4,30.15,NE,42,11.0,15.0,61,0.00,,,0.00,WeatherCatV1.10B1784,2013-03-07 17:46:00,
2013-03-07 12:51:00,61.2,47.6,30.15,North,9,11.0,14.0,61,0.00,,,0.00,WeatherCatV1.10B1784,2013-03-07 17:51:00,
2013-03-07 12:56:00,61.2,47.6,30.15,NNE,19,12.0,15.0,61,0.00,,,0.00,WeatherCatV1.10B1784,2013-03-07 17:56:00,
2013-03-07 13:01:00,61.3,48.2,30.14,NNE,15,9.0,12.0,62,0.00,,,0.00,WeatherCatV1.10B1784,2013-03-07 18:01:00,
2013-03-07 13:06:00,61.8,47.8,30.14,NNE,32,7.0,15.0,60,0.00,,,0.00,WeatherCatV1.10B1784,2013-03-07 18:06:00,
2013-03-07 13:11:00,61.7,47.7,30.14,NNE,27,7.0,17.0,60,0.00,,,0.00,WeatherCatV1.10B1784,2013-03-07 18:11:00,
2013-03-07 13:16:00,61.6,48.4,30.13,NNE,24,11.0,12.0,62,0.00,,,0.00,WeatherCatV1.10B1784,2013-03-07 18:16:00,
2013-03-07 13:21:00,62.3,49.1,30.13,ENE,57,6.0,12.0,62,0.00,,,0.00,WeatherCatV1.10B1784,2013-03-07 18:21:00,
2013-03-07 13:26:00,62.2,48.6,30.13,NNE,30,11.0,13.0,61,0.00,,,0.00,WeatherCatV1.10B1784,2013-03-07 18:26:00,
2013-03-07 13:31:00,61.6,48.4,30.12,NE,36,6.0,11.0,62,0.00,,,0.00,WeatherCatV1.10B1784,2013-03-07 18:31:00,
2013-03-07 13:36:00,61.4,48.3,30.12,NE,41,6.0,13.0,62,0.00,,,0.00,WeatherCatV1.10B1784,2013-03-07 18:36:00,
2013-03-07 13:41:00,61.3,48.6,30.12,NE,56,8.0,13.0,63,0.00,,,0.00,WeatherCatV1.10B1784,2013-03-07 18:41:00,
2013-03-07 13:46:00,61.9,48.7,30.12,NNE,12,7.0,16.0,62,0.00,,,0.00,WeatherCatV1.10B1784,2013-03-07 18:46:00,
2013-03-07 13:51:00,62.5,49.3,30.12,NNE,27,11.0,13.0,62,0.00,,,0.00,WeatherCatV1.10B1784,2013-03-07 18:51:00,
2013-03-07 13:56:00,62.5,48.4,30.12,NNE,13,13.0,13.0,60,0.00,,,0.00,WeatherCatV1.10B1784,2013-03-07 18:56:00,
2013-03-07 14:01:00,62.4,47.4,30.12,NNE,24,7.0,15.0,58,0.00,,,0.00,WeatherCatV1.10B1784,2013-03-07 19:01:00,
2013-03-07 14:06:00,62.3,48.7,30.12,NE,51,10.0,13.0,61,0.00,,,0.00,WeatherCatV1.10B1784,2013-03-07 19:06:00,
2013-03-07 14:11:00,61.8,48.2,30.12,NE,36,10.0,11.0,61,0.00,,,0.00,WeatherCatV1.10B1784,2013-03-07 19:11:00,
2013-03-07 14:16:00,62.1,48.0,30.12,NE,34,14.0,14.0,60,0.00,,,0.00,WeatherCatV1.10B1784,2013-03-07 19:16:00,
2013-03-07 14:21:00,62.4,48.8,30.12,NE,34,5.0,13.0,61,0.00,,,0.00,WeatherCatV1.10B1784,2013-03-07 19:21:00,
2013-03-07 14:26:00,62.7,49.1,30.12,NNE,22,12.0,13.0,61,0.00,,,0.00,WeatherCatV1.10B1784,2013-03-07 19:26:00,
2013-03-07 14:31:00,62.4,48.8,30.12,NNE,25,9.0,11.0,61,0.00,,,0.00,WeatherCatV1.10B1784,2013-03-07 19:31:00,
2013-03-07 14:36:00,62.5,48.9,30.12,NNE,23,9.0,13.0,61,0.00,,,0.00,WeatherCatV1.10B1784,2013-03-07 19:36:00,
2013-03-07 14:41:00,62.6,48.1,30.12,NE,35,12.0,13.0,59,0.00,,,0.00,WeatherCatV1.10B1784,2013-03-07 19:41:00,
2013-03-07 14:46:00,63.0,48.4,30.12,NNE,28,11.0,14.0,59,0.00,,,0.00,WeatherCatV1.10B1784,2013-03-07 19:46:00,
2013-03-07 14:51:00,63.4,49.7,30.12,NNE,30,6.0,10.0,61,0.00,,,0.00,WeatherCatV1.10B1784,2013-03-07 19:51:00,
2013-03-07 14:56:00,63.4,48.4,30.12,NNE,28,7.0,13.0,58,0.00,,,0.00,WeatherCatV1.10B1784,2013-03-07 19:56:00,
2013-03-07 15:01:00,62.9,48.8,30.12,NE,46,11.0,11.0,60,0.00,,,0.00,WeatherCatV1.10B1784,2013-03-07 20:01:00,
2013-03-07 15:06:00,62.8,49.1,30.12,NE,34,12.0,14.0,61,0.00,,,0.00,WeatherCatV1.10B1784,2013-03-07 20:06:00,
2013-03-07 15:11:00,62.9,48.3,30.12,NNE,28,12.0,15.0,59,0.00,,,0.00,WeatherCatV1.10B1784,2013-03-07 20:11:00,
2013-03-07 15:16:00,62.4,48.8,30.12,NE,46,11.0,11.0,61,0.00,,,0.00,WeatherCatV1.10B1784,2013-03-07 20:16:00,
2013-03-07 15:21:00,62.5,49.7,30.12,NE,54,5.0,14.0,63,0.00,,,0.00,WeatherCatV1.10B1784,2013-03-07 20:21:00,
2013-03-07 15:26:00,62.2,49.0,30.12,NNE,31,6.0,14.0,62,0.00,,,0.00,WeatherCatV1.10B1784,2013-03-07 20:26:00,
2013-03-07 15:31:00,62.2,49.4,30.12,NE,38,5.0,15.0,63,0.00,,,0.00,WeatherCatV1.10B1784,2013-03-07 20:31:00,
2013-03-07 15:36:00,62.9,49.2,30.12,NE,46,10.0,13.0,61,0.00,,,0.00,WeatherCatV1.10B1784,2013-03-07 20:36:00,
2013-03-07 15:41:00,62.9,49.7,30.12,NNE,19,13.0,13.0,62,0.00,,,0.00,WeatherCatV1.10B1784,2013-03-07 20:41:00,
2013-03-07 15:46:00,62.6,49.0,30.12,NNE,33,11.0,14.0,61,0.00,,,0.00,WeatherCatV1.10B1784,2013-03-07 20:46:00,
2013-03-07 15:51:00,62.1,49.3,30.12,NE,37,6.0,16.0,63,0.00,,,0.00,WeatherCatV1.10B1784,2013-03-07 20:51:00,
2013-03-07 15:56:00,62.3,50.0,30.12,NE,42,9.0,13.0,64,0.00,,,0.00,WeatherCatV1.10B1784,2013-03-07 20:56:00,
2013-03-07 16:01:00,62.1,49.3,30.11,NNE,16,10.0,11.0,63,0.00,,,0.00,WeatherCatV1.10B1784,2013-03-07 21:01:00,
2013-03-07 16:06:00,61.8,49.5,30.11,NE,35,4.0,11.0,64,0.00,,,0.00,WeatherCatV1.10B1784,2013-03-07 21:06:00,
2013-03-07 16:11:00,61.7,49.4,30.11,NNE,28,9.0,12.0,64,0.00,,,0.00,WeatherCatV1.10B1784,2013-03-07 21:11:00,
2013-03-07 16:16:00,62.1,49.8,30.11,NE,36,6.0,11.0,64,0.00,,,0.00,WeatherCatV1.10B1784,2013-03-07 21:16:00,
2013-03-07 16:21:00,62.2,49.4,30.11,NE,45,6.0,12.0,63,0.00,,,0.00,WeatherCatV1.10B1784,2013-03-07 21:21:00,
2013-03-07 16:26:00,62.1,49.8,30.11,NE,37,7.0,18.0,64,0.00,,,0.00,WeatherCatV1.10B1784,2013-03-07 21:26:00,
2013-03-07 16:31:00,62.5,49.7,30.11,NNE,29,10.0,14.0,63,0.00,,,0.00,WeatherCatV1.10B1784,2013-03-07 21:31:00,
2013-03-07 16:36:00,62.1,49.8,30.11,NE,49,7.0,12.0,64,0.00,,,0.00,WeatherCatV1.10B1784,2013-03-07 21:36:00,
2013-03-07 16:41:00,61.9,50.0,30.11,NNE,31,10.0,12.0,65,0.00,,,0.00,WeatherCatV1.10B1784,2013-03-07 21:41:00,
2013-03-07 16:46:00,61.7,49.4,30.11,NNE,24,10.0,17.0,64,0.00,,,0.00,WeatherCatV1.10B1784,2013-03-07 21:46:00,
2013-03-07 16:51:00,61.6,49.7,30.11,ENE,63,8.0,14.0,65,0.00,,,0.00,WeatherCatV1.10B1784,2013-03-07 21:51:00,
2013-03-07 16:56:00,61.4,49.1,30.11,NNE,21,13.0,14.0,64,0.00,,,0.00,WeatherCatV1.10B1784,2013-03-07 21:56:00,
2013-03-07 17:01:00,61.6,49.7,30.11,NE,39,9.0,13.0,65,0.00,,,0.00,WeatherCatV1.10B1784,2013-03-07 22:01:00,
2013-03-07 17:06:00,61.4,49.5,30.11,North,9,10.0,13.0,65,0.00,,,0.00,WeatherCatV1.10B1784,2013-03-07 22:06:00,
2013-03-07 17:11:00,61.1,49.2,30.11,NNE,28,8.0,15.0,65,0.00,,,0.00,WeatherCatV1.10B1784,2013-03-07 22:11:00,
2013-03-07 17:16:00,61.2,49.3,30.12,NE,40,4.0,12.0,65,0.00,,,0.00,WeatherCatV1.10B1784,2013-03-07 22:16:00,
2013-03-07 17:21:00,61.4,49.5,30.12,NE,40,4.0,7.0,65,0.00,,,0.00,WeatherCatV1.10B1784,2013-03-07 22:21:00,
2013-03-07 17:26:00,61.4,49.5,30.12,NNE,24,9.0,11.0,65,0.00,,,0.00,WeatherCatV1.10B1784,2013-03-07 22:26:00,
2013-03-07 17:31:00,61.2,49.3,30.12,NNE,20,9.0,12.0,65,0.00,,,0.00,WeatherCatV1.10B1784,2013-03-07 22:31:00,
2013-03-07 17:36:00,61.1,49.7,30.12,NNE,27,10.0,11.0,66,0.00,,,0.00,WeatherCatV1.10B1784,2013-03-07 22:36:00,
2013-03-07 17:41:00,60.9,49.5,30.12,NE,44,8.0,10.0,66,0.00,,,0.00,WeatherCatV1.10B1784,2013-03-07 22:41:00,
2013-03-07 17:46:00,60.4,49.4,30.12,NE,56,5.0,11.0,67,0.00,,,0.00,WeatherCatV1.10B1784,2013-03-07 22:46:00,
2013-03-07 17:51:00,60.2,49.6,30.12,NNE,24,9.0,11.0,68,0.00,,,0.00,WeatherCatV1.10B1784,2013-03-07 22:51:00,
2013-03-07 17:56:00,60.1,49.5,30.12,NE,51,6.0,11.0,68,0.00,,,0.00,WeatherCatV1.10B1784,2013-03-07 22:56:00,
2013-03-07 18:01:00,59.8,49.2,30.12,NE,38,7.0,11.0,68,0.00,,,0.00,WeatherCatV1.10B1784,2013-03-07 23:01:00,
2013-03-07 18:06:00,59.6,49.4,30.12,NNE,32,6.0,13.0,69,0.00,,,0.00,WeatherCatV1.10B1784,2013-03-07 23:06:00,
2013-03-07 18:11:00,59.6,49.4,30.12,NE,40,5.0,9.0,69,0.00,,,0.00,WeatherCatV1.10B1784,2013-03-07 23:11:00,
2013-03-07 18:16:00,59.5,49.7,30.12,NE,42,6.0,11.0,70,0.00,,,0.00,WeatherCatV1.10B1784,2013-03-07 23:16:00,
2013-03-07 18:21:00,59.3,49.5,30.12,ENE,63,9.0,11.0,70,0.00,,,0.00,WeatherCatV1.10B1784,2013-03-07 23:21:00,
2013-03-07 18:26:00,59.0,49.6,30.12,NNE,32,9.0,10.0,71,0.00,,,0.00,WeatherCatV1.10B1784,2013-03-07 23:26:00,
2013-03-07 18:31:00,58.9,49.1,30.12,NE,34,5.0,11.0,70,0.00,,,0.00,WeatherCatV1.10B1784,2013-03-07 23:31:00,
2013-03-07 18:36:00,58.8,49.0,30.12,NE,41,9.0,10.0,70,0.00,,,0.00,WeatherCatV1.10B1784,2013-03-07 23:36:00,
2013-03-07 18:41:00,58.8,49.0,30.12,NE,34,5.0,9.0,70,0.00,,,0.00,WeatherCatV1.10B1784,2013-03-07 23:41:00,
2013-03-07 18:46:00,58.8,49.4,30.13,NE,55,4.0,7.0,71,0.00,,,0.00,WeatherCatV1.10B1784,2013-03-07 23:46:00,
2013-03-07 18:51:00,58.7,48.9,30.13,NE,51,3.0,9.0,70,0.00,,,0.00,WeatherCatV1.10B1784,2013-03-07 23:51:00,
2013-03-07 18:56:00,58.7,48.9,30.13,NE,40,7.0,7.0,70,0.00,,,0.00,WeatherCatV1.10B1784,2013-03-07 23:56:00,
2013-03-07 19:01:00,58.6,48.8,30.13,NNE,30,7.0,9.0,70,0.00,,,0.00,WeatherCatV1.10B1784,2013-03-08 00:01:00,
2013-03-07 19:06:00,58.6,48.5,30.13,NNE,26,9.0,11.0,69,0.00,,,0.00,WeatherCatV1.10B1784,2013-03-08 00:06:00,
2013-03-07 19:11:00,58.6,48.1,30.13,NE,40,4.0,7.0,68,0.00,,,0.00,WeatherCatV1.10B1784,2013-03-08 00:11:00,
2013-03-07 19:16:00,58.7,48.9,30.14,NE,40,7.0,7.0,70,0.00,,,0.00,WeatherCatV1.10B1784,2013-03-08 00:16:00,
2013-03-07 19:21:00,58.7,48.6,30.14,NE,48,4.0,9.0,69,0.00,,,0.00,WeatherCatV1.10B1784,2013-03-08 00:21:00,
2013-03-07 19:26:00,58.6,48.5,30.14,NE,42,2.0,3.0,69,0.00,,,0.00,WeatherCatV1.10B1784,2013-03-08 00:26:00,
2013-03-07 19:31:00,58.7,48.6,30.14,NE,50,6.0,9.0,69,0.00,,,0.00,WeatherCatV1.10B1784,2013-03-08 00:31:00,
2013-03-07 19:36:00,58.7,48.2,30.14,NE,38,2.0,7.0,68,0.00,,,0.00,WeatherCatV1.10B1784,2013-03-08 00:36:00,
2013-03-07 19:41:00,58.7,47.8,30.14,NE,34,6.0,6.0,67,0.00,,,0.00,WeatherCatV1.10B1784,2013-03-08 00:41:00,
2013-03-07 19:46:00,58.6,47.3,30.14,NNE,30,5.0,9.0,66,0.00,,,0.00,WeatherCatV1.10B1784,2013-03-08 00:46:00,
2013-03-07 19:51:00,58.6,47.7,30.14,NNE,32,9.0,9.0,67,0.00,,,0.00,WeatherCatV1.10B1784,2013-03-08 00:51:00,
2013-03-07 19:56:00,58.6,47.7,30.14,NE,34,3.0,7.0,67,0.00,,,0.00,WeatherCatV1.10B1784,2013-03-08 00:56:00,
2013-03-07 20:01:00,58.7,48.2,30.15,NE,36,3.0,5.0,68,0.00,,,0.00,WeatherCatV1.10B1784,2013-03-08 01:01:00,
2013-03-07 20:06:00,58.8,48.3,30.15,NE,38,3.0,7.0,68,0.00,,,0.00,WeatherCatV1.10B1784,2013-03-08 01:06:00,
2013-03-07 20:11:00,58.7,47.8,30.15,NE,34,3.0,7.0,67,0.00,,,0.00,WeatherCatV1.10B1784,2013-03-08 01:11:00,
2013-03-07 20:16:00,58.7,47.8,30.15,NE,34,4.0,6.0,67,0.00,,,0.00,WeatherCatV1.10B1784,2013-03-08 01:16:00,
2013-03-07 20:21:00,58.7,47.8,30.15,NE,34,3.0,6.0,67,0.00,,,0.00,WeatherCatV1.10B1784,2013-03-08 01:21:00,
2013-03-07 20:26:00,58.6,48.1,30.15,NE,34,3.0,5.0,68,0.00,,,0.00,WeatherCatV1.10B1784,2013-03-08 01:26:00,
2013-03-07 20:31:00,58.4,48.3,30.15,NE,34,3.0,5.0,69,0.00,,,0.00,WeatherCatV1.10B1784,2013-03-08 01:31:00,
2013-03-07 20:36:00,58.3,48.2,30.15,NE,34,3.0,4.0,69,0.00,,,0.00,WeatherCatV1.10B1784,2013-03-08 01:36:00,
2013-03-07 20:41:00,58.2,47.7,30.15,NE,34,1.0,2.0,68,0.00,,,0.00,WeatherCatV1.10B1784,2013-03-08 01:41:00,
2013-03-07 20:46:00,58.2,48.1,30.15,NE,34,3.0,4.0,69,0.00,,,0.00,WeatherCatV1.10B1784,2013-03-08 01:46:00,
2013-03-07 20:51:00,58.2,48.1,30.15,NE,34,2.0,3.0,69,0.00,,,0.00,WeatherCatV1.10B1784,2013-03-08 01:51:00,
2013-03-07 20:56:00,58.2,48.1,30.15,NE,34,2.0,2.0,69,0.00,,,0.00,WeatherCatV1.10B1784,2013-03-08 01:56:00,
2013-03-07 21:01:00,58.2,48.1,30.16,NE,34,0.0,1.0,69,0.00,,,0.00,WeatherCatV1.10B1784,2013-03-08 02:01:00,
2013-03-07 21:06:00,58.1,48.4,30.16,NE,34,1.0,1.0,70,0.00,,,0.00,WeatherCatV1.10B1784,2013-03-08 02:06:00,
2013-03-07 21:11:00,58.0,48.6,30.16,NE,34,0.0,0.0,71,0.00,,,0.00,WeatherCatV1.10B1784,2013-03-08 02:11:00,
2013-03-07 21:16:00,57.8,48.8,30.16,NE,34,1.0,2.0,72,0.00,,,0.00,WeatherCatV1.10B1784,2013-03-08 02:16:00,
2013-03-07 21:21:00,57.6,48.6,30.16,NE,34,3.0,4.0,72,0.00,,,0.00,WeatherCatV1.10B1784,2013-03-08 02:21:00,
2013-03-07 21:26:00,57.4,48.8,30.16,NE,34,1.0,2.0,73,0.00,,,0.00,WeatherCatV1.10B1784,2013-03-08 02:26:00,
2013-03-07 21:31:00,57.2,49.0,30.17,NE,34,2.0,2.0,74,0.00,,,0.00,WeatherCatV1.10B1784,2013-03-08 02:31:00,
2013-03-07 21:36:00,57.1,48.9,30.17,NE,34,0.0,0.0,74,0.00,,,0.00,WeatherCatV1.10B1784,2013-03-08 02:36:00,
2013-03-07 21:41:00,57.1,48.9,30.17,NE,34,0.0,2.0,74,0.00,,,0.00,WeatherCatV1.10B1784,2013-03-08 02:41:00,
2013-03-07 21:46:00,57.0,49.2,30.17,NE,34,2.0,4.0,75,0.00,,,0.00,WeatherCatV1.10B1784,2013-03-08 02:46:00,
2013-03-07 21:51:00,56.9,49.1,30.17,NE,34,2.0,4.0,75,0.00,,,0.00,WeatherCatV1.10B1784,2013-03-08 02:51:00,
2013-03-07 21:56:00,56.9,49.1,30.17,NE,34,1.0,3.0,75,0.00,,,0.00,WeatherCatV1.10B1784,2013-03-08 02:56:00,
2013-03-07 22:01:00,56.9,49.4,30.17,NE,34,3.0,4.0,76,0.00,,,0.00,WeatherCatV1.10B1784,2013-03-08 03:01:00,
2013-03-07 22:06:00,56.9,49.4,30.17,NE,34,2.0,4.0,76,0.00,,,0.00,WeatherCatV1.10B1784,2013-03-08 03:06:00,
2013-03-07 22:11:00,56.9,49.4,30.17,NE,34,2.0,3.0,76,0.00,,,0.00,WeatherCatV1.10B1784,2013-03-08 03:11:00,
2013-03-07 22:16:00,57.0,49.9,30.17,NE,34,3.0,4.0,77,0.00,,,0.00,WeatherCatV1.10B1784,2013-03-08 03:16:00,
2013-03-07 22:21:00,57.3,50.2,30.17,NE,34,3.0,4.0,77,0.00,,,0.00,WeatherCatV1.10B1784,2013-03-08 03:21:00,
2013-03-07 22:26:00,57.3,50.5,30.17,NE,34,2.0,4.0,78,0.00,,,0.00,WeatherCatV1.10B1784,2013-03-08 03:26:00,
2013-03-07 22:31:00,57.3,50.8,30.17,NE,34,3.0,4.0,79,0.00,,,0.00,WeatherCatV1.10B1784,2013-03-08 03:31:00,
2013-03-07 22:36:00,57.4,51.3,30.17,NE,34,4.0,5.0,80,0.00,,,0.00,WeatherCatV1.10B1784,2013-03-08 03:36:00,
2013-03-07 22:41:00,57.3,51.5,30.17,NE,34,3.0,5.0,81,0.00,,,0.00,WeatherCatV1.10B1784,2013-03-08 03:41:00,
2013-03-07 22:46:00,57.2,51.4,30.17,NE,34,4.0,5.0,81,0.00,,,0.00,WeatherCatV1.10B1784,2013-03-08 03:46:00,
2013-03-07 22:51:00,57.1,52.0,30.17,NNE,25,4.0,4.0,83,0.00,,,0.00,WeatherCatV1.10B1784,2013-03-08 03:51:00,
2013-03-07 22:56:00,56.9,52.1,30.17,NNE,22,4.0,5.0,84,0.00,,,0.00,WeatherCatV1.10B1784,2013-03-08 03:56:00,
2013-03-07 23:01:00,56.8,52.0,30.17,NNE,22,0.0,2.0,84,0.00,,,0.00,WeatherCatV1.10B1784,2013-03-08 04:01:00,
2013-03-07 23:06:00,56.6,51.8,30.17,NNE,22,2.0,2.0,84,0.00,,,0.00,WeatherCatV1.10B1784,2013-03-08 04:06:00,
2013-03-07 23:11:00,56.4,51.9,30.17,NNE,22,0.0,1.0,85,0.00,,,0.00,WeatherCatV1.10B1784,2013-03-08 04:11:00,
2013-03-07 23:16:00,56.3,51.8,30.17,NNE,22,0.0,0.0,85,0.00,,,0.00,WeatherCatV1.10B1784,2013-03-08 04:16:00,
2013-03-07 23:22:00,56.1,51.7,30.17,NNE,22,2.0,2.0,85,0.00,,,0.00,WeatherCatV1.10B1784,2013-03-08 04:22:00,
2013-03-07 23:27:00,56.0,51.9,30.17,NNE,22,2.0,3.0,86,0.00,,,0.00,WeatherCatV1.10B1784,2013-03-08 04:27:00,
2013-03-07 23:32:00,55.8,51.7,30.17,NNE,22,3.0,3.0,86,0.00,,,0.00,WeatherCatV1.10B1784,2013-03-08 04:32:00,
2013-03-07 23:37:00,55.7,51.6,30.17,NNE,22,2.0,4.0,86,0.00,,,0.00,WeatherCatV1.10B1784,2013-03-08 04:37:00,
2013-03-07 23:42:00,55.5,51.4,30.17,NNE,22,4.0,4.0,86,0.00,,,0.00,WeatherCatV1.10B1784,2013-03-08 04:42:00,
2013-03-07 23:47:00,55.4,51.3,30.17,NNE,22,4.0,6.0,86,0.00,,,0.00,WeatherCatV1.10B1784,2013-03-08 04:47:00,
2013-03-07 23:52:00,55.2,51.1,30.17,NNE,22,2.0,2.0,86,0.00,,,0.00,WeatherCatV1.10B1784,2013-03-08 04:52:00,
2013-03-07 23:57:00,54.9,50.8,30.17,NNE,22,0.0,3.0,86,0.00,,,0.00,WeatherCatV1.10B1784,2013-03-08 04:57:00,